Content
SEND FEEDBACK

Daily
Averages
Monthly
Summary
United States of America

UPI, GUAM


Home > North America > United States > Guam
Elevation: 53 feet     Latitude: 13 34N     Longitude: 144 55E

WEATHER
 
SELECT A DAY
Number of Records: 209,044;   Date Range: 1/1/95 - 7/29/14
 
SHARE

PRINT THIS DATA

[ ← Previous Day ]
WEATHER ALMANAC - FEBRUARY 28, 2013
[ Next Day → ]
[ °C ]   °F
Weather ElementAverageHighLow
Temperature79.1 °F85.6 °F (3:54 pm)73 °F (5:54 am)
Dewpoint75.5 °F77.5 °F (11:54 am)73 °F (5:54 am)
Humidity89.1 %100 % (2:01 am)75 % (12:54 pm)
Barometer29.85 in29.91 in (10:12 pm)29.80 in (2:54 pm)
Wind Speed12.7 mph19.6 mph (2:01 pm)
Wind Gust26.5 mph (2:01 am)
Weather ElementAverage
Visibility9.2 mi
Wind DirectionE (92 °)

Weather ElementTotal
Precipitation0.57 in
Cooling Degree Days14.3 (Base 65)
Growing Degree Days29.3 (Base 50)
Averaged from 45 records on February 28, 2013
WEATHER CONDITIONS BREAKOUT
WIND DIRECTION BREAKOUT
WEATHER BY HOUR - FEBRUARY 28, 2013
[ °C ]   °F
Local TimeTemperatureDewpointHumidityBarometerVisibilityWind DirectionWind SpeedGust SpeedPrecipitationEventsConditions
12:38 AM78.8 °F75.2 °F89 %29.88 in10.0 miEast (80°)10.4 mphScattered Clouds
12:54 AM77.0 °F75.9 °F96 %29.85 in10.0 miEast (80°)13.8 mphMostly Cloudy
1:54 AM77.0 °F75.0 °F94 %29.83 in10.0 miEast (100°)12.7 mph0.01 inMostly Cloudy
2:01 AM75.2 °F75.2 °F100 %29.86 in9.0 miEast (90°)16.1 mph26.5 mphScattered Clouds
2:08 AM75.2 °F75.2 °F100 %29.86 in9.0 miEast (90°)15.0 mph0.00 inRainLight Rain
2:52 AM75.2 °F75.2 °F100 %29.84 in10.0 miEast (100°)10.4 mph0.00 inMostly Cloudy
2:54 AM75.9 °F75.0 °F97 %29.82 in10.0 miEast (100°)8.1 mph0.00 inMostly Cloudy
3:32 AM77.0 °F75.2 °F94 %29.84 in9.0 miEast (90°)15.0 mph0.00 inRainLight Rain
3:54 AM75.9 °F75.0 °F97 %29.82 in8.0 miESE (110°)17.3 mph25.3 mph0.00 inMostly Cloudy
4:08 AM73.4 °F73.4 °F100 %29.84 in5.0 miESE (120°)10.4 mph23.0 mph0.03 inRainRain
4:54 AM75.9 °F75.0 °F97 %29.81 in10.0 miEast (90°)12.7 mph18.4 mph0.03 inScattered Clouds
5:36 AM73.4 °F73.4 °F100 %29.84 in2.5 miEast (100°)18.4 mph25.3 mph0.04 inRainHeavy Rain
5:40 AM73.4 °F73.4 °F100 %29.84 in1.8 miESE (110°)15.0 mph25.3 mph0.11 inRainHeavy Rain
5:43 AM73.4 °F73.4 °F100 %29.84 in2.0 miESE (110°)15.0 mph25.3 mph0.13 inRainHeavy Rain
5:54 AM73.0 °F73.0 °F100 %29.83 in6.0 miESE (110°)13.8 mph21.9 mph0.16 inRainRain
6:54 AM73.9 °F73.9 °F100 %29.83 in10.0 miESE (110°)4.6 mph0.06 inOvercast
7:04 AM75.2 °F75.2 °F100 %29.85 in10.0 miCalmOvercast
7:36 AM77.0 °F75.2 °F94 %29.86 in10.0 miEast (100°)9.2 mphOvercast
7:54 AM78.1 °F75.0 °F90 %29.85 in10.0 miESE (110°)11.5 mph19.6 mphOvercast
8:54 AM79.0 °F75.9 °F90 %29.86 in10.0 miEast (100°)18.4 mph23.0 mphOvercast
9:54 AM83.5 °F76.8 °F80 %29.86 in10.0 miEast (100°)17.3 mph24.2 mphScattered Clouds
10:54 AM84.2 °F76.6 °F78 %29.87 in10.0 miEast (100°)16.1 mph24.2 mphScattered Clouds
11:54 AM84.7 °F77.5 °F79 %29.85 in10.0 miEast (90°)18.4 mph26.5 mph0.00 inScattered Clouds
12:54 PM85.5 °F76.8 °F75 %29.83 in10.0 miEast (80°)18.4 mph25.3 mphScattered Clouds
1:54 PM85.3 °F77.2 °F77 %29.81 in10.0 miEast (90°)18.4 mph23.0 mph0.00 inScattered Clouds
2:01 PM82.4 °F75.2 °F79 %29.83 in10.0 miEast (80°)19.6 mph26.5 mphMostly Cloudy
2:25 PM82.4 °F75.2 °F79 %29.82 in10.0 miEast (90°)16.1 mph24.2 mphScattered Clouds
2:54 PM82.0 °F75.0 °F79 %29.80 in10.0 miEast (90°)17.3 mph25.3 mphScattered Clouds
3:54 PM85.6 °F76.8 °F75 %29.80 in10.0 miESE (110°)15.0 mph20.7 mphScattered Clouds
4:19 PM84.2 °F77.0 °F79 %29.82 in10.0 miEast (100°)15.0 mph23.0 mphMostly Cloudy
4:46 PM84.2 °F77.0 °F79 %29.82 in10.0 miEast (90°)16.1 mphScattered Clouds
4:54 PM83.3 °F76.3 °F79 %29.81 in10.0 miEast (90°)11.5 mphPartly Cloudy
5:54 PM82.0 °F76.3 °F83 %29.82 in10.0 miEast (80°)11.5 mphPartly Cloudy
6:54 PM80.1 °F75.7 °F87 %29.83 in10.0 miEast (90°)11.5 mphMostly Cloudy
7:02 PM80.6 °F75.2 °F84 %29.85 in10.0 miEast (90°)10.4 mphScattered Clouds
7:44 PM80.6 °F75.2 °F84 %29.87 in10.0 miEast (90°)10.4 mphMostly Cloudy
7:54 PM80.1 °F75.7 °F87 %29.85 in10.0 miEast (100°)8.1 mphScattered Clouds
8:54 PM79.9 °F75.7 °F87 %29.87 in10.0 miEast (100°)10.4 mph18.4 mphScattered Clouds
9:54 PM80.1 °F75.9 °F87 %29.89 in10.0 miEast (80°)10.4 mphMostly Cloudy
10:12 PM80.6 °F77.0 °F89 %29.91 in10.0 miEast (90°)10.4 mphScattered Clouds
10:19 PM80.6 °F77.0 °F89 %29.91 in10.0 miEast (90°)8.1 mphMostly Cloudy
10:54 PM80.1 °F75.9 °F87 %29.88 in10.0 miEast (80°)9.2 mphMostly Cloudy
11:12 PM77.0 °F75.2 °F94 %29.91 in10.0 miEast (80°)9.2 mphMostly Cloudy
11:22 PM78.8 °F75.2 °F89 %29.91 in10.0 miEast (80°)6.9 mphScattered Clouds
11:54 PM79.5 °F75.7 °F88 %29.89 in10.0 miEast (80°)8.1 mphScattered Clouds
Hourly data recorded from PGUM, located miles away from Upi, Guam







STORIES FROM OUR PARTNERS